Dewpoint
58 58 58 58 58 57 57 58 58 58 58 58 57 57 57 57 57 51 25 25 32 42 50 50 44 46 45 36 38 39 36 32 20 20 18 18 18 22 30 46 49 53 53 54 58
57 57 58 58 58 58 58 58 58 58 58 58 57 57 57 57 49 35 36 41 40 43 34 40 41 37 31 31 34 35 32 26 21 19 16 16 16 19 20 50 53 53 54 55 58
56 56 57 57 57 57 58 58 57 57 58 58 57 57 57 56 47 34 48 45 40 41 27 30 33 32 23 23 25 26 27 26 19 15 14 13 13 17 22 27 52 52 52 54 56
55 55 56 56 57 57 58 57 57 57 57 58 57 57 57 53 36 37 49 44 44 40 31 31 35 28 23 21 22 26 24 24 16 15 14 13 13 22 22 19 51 53 53 54 54
55 55 55 56 56 57 57 57 56 57 58 57 56 57 53 39 37 51 53 51 40 34 29 39 35 24 21 20 20 24 20 16 14 15 13 15 18 23 22 28 50 53 53 54 54
55 54 54 55 55 56 57 57 56 58 58 57 57 57 48 38 46 56 42 35 26 32 36 36 29 22 19 19 23 25 19 14 14 16 16 15 15 25 24 34 41 53 53 54 54
54 54 54 54 55 56 56 56 55 58 57 57 57 55 46 38 45 47 35 28 26 24 35 32 23 19 20 25 32 21 15 16 15 16 16 15 25 25 29 40 43 45 50 53 55
53 53 53 54 54 55 55 55 55 58 57 57 57 50 44 42 36 34 32 29 29 29 32 26 26 20 21 33 31 20 17 16 14 14 15 17 24 27 41 43 43 44 50 55 57
53 53 53 53 53 54 53 54 54 58 57 58 54 50 41 31 32 32 34 32 31 29 27 26 26 30 31 28 24 18 16 16 14 14 14 17 24 31 42 44 45 50 54 55 57
52 52 52 52 52 53 52 54 56 54 57 54 49 43 43 24 28 28 27 26 27 27 26 25 21 21 23 23 18 15 14 16 15 13 14 16 24 23 39 44 46 52 54 55 56
52 52 52 52 51 51 51 46 42 43 42 38 37 39 35 30 25 27 26 23 26 23 24 25 23 22 22 22 14 13 13 13 15 17 15 15 25 22 33 41 47 50 51 53 55
51 51 51 51 51 50 51 40 28 29 28 30 33 32 24 22 17 19 25 24 24 18 21 22 22 19 17 16 14 13 13 14 18 17 17 17 17 23 25 38 45 48 49 51 53
51 51 51 51 49 50 41 29 30 30 29 28 27 26 23 21 18 17 22 24 23 19 18 17 16 18 17 15 15 17 16 18 18 18 18 18 18 25 27 32 38 44 47 50 51
50 50 51 50 42 41 38 31 31 30 27 26 23 17 20 21 15 18 20 22 19 17 16 15 17 17 15 15 17 17 18 18 18 19 16 19 15 27 28 29 36 41 44 48 51
50 50 50 50 40 42 38 33 33 30 25 22 16 18 19 16 16 16 17 17 17 15 15 14 17 16 15 18 19 19 17 16 16 16 16 16 16 29 29 29 35 39 41 46 49
49 49 49 45 46 45 45 40 34 28 22 16 14 14 15 15 15 15 15 17 16 15 17 15 17 17 16 18 19 17 18 20 19 19 17 18 20 29 29 29 36 39 40 44 48
48 48 48 42 26 23 33 34 30 24 20 15 13 13 12 12 13 13 13 13 13 15 15 16 15 16 16 18 19 16 20 19 19 21 19 25 24 26 32 35 36 37 39 40 49
47 48 47 43 38 33 36 32 27 27 21 17 15 12 10 12 12 13 14 13 15 14 14 14 16 16 20 20 20 21 21 20 20 21 19 21 18 29 35 36 37 38 36 40 46
47 37 34 39 40 39 33 29 27 25 19 19 15 13 11 11 12 12 12 14 15 15 14 15 20 21 21 21 21 21 19 24 21 22 18 17 28 33 34 33 33 34 36 41 45
44 39 36 27 37 34 28 26 23 21 18 22 18 16 13 13 12 14 16 18 17 18 21 21 19 22 22 22 21 21 22 21 22 16 16 20 28 29 31 34 35 33 34 42 43
44 37 32 29 30 28 25 22 19 18 19 20 20 19 16 17 19 16 17 17 17 20 21 21 22 21 23 23 23 25 22 24 24 22 21 19 27 36 31 31 31 36 46 47 47
41 34 31 31 26 25 23 22 18 18 21 20 16 17 16 20 22 20 19 25 25 23 22 24 24 24 24 26 25 25 24 27 24 23 24 25 23 30 30 28 37 46 48 48 48
38 34 30 31 24 19 20 20 18 18 19 16 15 15 14 16 19 24 24 26 26 30 30 29 26 24 22 24 24 25 25 28 29 29 25 23 23 30 29 31 44 46 48 48 47
39 36 32 22 22 18 16 18 22 18 17 17 23 23 22 20 18 23 23 26 27 27 28 27 26 27 24 25 21 21 23 28 26 24 24 24 25 20 37 41 45 48 48 48 48
43 40 35 32 32 32 34 24 24 19 20 21 18 19 21 22 23 23 22 25 27 28 26 26 26 27 24 22 21 22 21 20 17 20 19 19 19 24 44 44 45 46 46 47 47
40 37 38 36 31 26 28 31 26 24 25 24 21 21 23 25 28 29 29 29 26 29 27 26 24 26 25 25 25 25 23 21 18 16 15 15 15 44 42 42 42 43 43 43 52
42 39 37 37 29 23 22 26 21 21 22 21 25 26 33 33 34 33 31 29 31 29 28 29 29 33 28 30 28 24 24 21 19 19 19 25 41 42 41 41 48 51 51 51 52
Wind_Speed
23 23 22 22 21 20 18 16 14 13 12 12 11 11 10 12 16 3 8 10 7 11 4 6 9 17 20 20 22 22 15 14 14 17 16 15 15 14 14 23 10 11 27 33 30
24 24 23 23 22 21 19 16 15 13 12 11 9 8 8 9 4 12 14 10 8 10 4 9 14 16 11 17 13 15 10 8 13 14 12 13 5 6 12 26 30 26 29 34 30
24 24 24 24 23 22 19 17 15 13 11 10 8 6 6 7 4 7 13 15 9 10 8 14 21 18 15 18 24 11 4 10 9 11 8 5 9 11 19 14 32 37 34 33 31
23 24 25 25 24 23 21 19 16 13 10 8 6 5 3 3 4 2 11 11 8 6 5 6 13 16 16 15 18 6 9 10 7 6 5 6 3 20 15 6 34 35 36 32 29
25 25 25 25 25 24 23 20 16 13 8 5 6 5 1 2 8 7 11 9 8 6 8 12 14 14 18 16 21 9 6 10 10 10 4 5 14 17 6 10 28 34 33 33 28
27 27 27 26 25 24 23 21 17 13 2 4 7 7 1 3 7 13 11 10 9 9 11 16 11 15 13 17 16 13 7 9 8 6 3 6 8 14 1 19 18 31 30 31 30
29 29 29 27 26 25 24 21 16 10 2 6 9 4 5 11 16 15 15 9 12 14 17 19 13 12 17 20 13 13 9 13 15 11 5 3 14 6 5 23 22 13 12 24 27
30 30 30 29 27 25 24 21 14 5 4 6 7 4 7 8 18 16 17 16 18 19 20 15 9 9 13 17 21 21 15 14 11 10 7 7 9 8 23 25 20 17 12 13 13
31 31 32 31 27 26 27 23 9 2 4 7 2 2 8 5 8 14 18 17 16 14 15 10 7 10 16 17 18 15 20 10 11 3 4 8 12 14 24 25 21 21 19 15 15
31 33 33 33 29 25 31 12 5 1 4 6 10 7 8 10 11 14 14 12 9 12 8 6 6 10 13 14 10 11 14 16 15 10 5 5 17 11 22 25 22 21 21 19 17
32 34 35 36 34 24 15 2 2 1 7 10 6 8 8 16 9 13 13 8 11 5 11 16 8 12 23 15 7 13 13 11 7 13 7 5 18 17 21 26 25 24 23 20 17
33 34 36 38 37 31 2 3 5 6 11 17 25 26 6 12 7 11 14 8 8 13 16 10 19 18 4 4 6 9 14 11 1 15 8 6 10 21 19 25 27 24 22 21 18
33 33 35 40 43 8 7 3 7 9 6 11 22 20 8 9 13 16 17 14 13 16 19 19 13 4 3 7 7 7 8 6 6 9 5 8 13 14 19 25 24 24 25 23 22
33 33 32 41 8 13 8 9 8 4 4 7 14 9 17 11 10 12 19 14 9 15 14 8 6 5 6 8 2 12 15 14 14 13 11 8 15 11 24 21 24 24 23 22 21
33 32 31 14 13 9 10 13 9 3 4 17 12 7 20 13 7 17 19 15 20 17 3 11 4 8 3 5 8 4 12 12 14 15 14 21 11 8 26 23 24 25 24 25 23
36 32 27 2 6 15 22 23 12 2 7 13 9 10 16 17 13 17 13 15 9 13 13 11 4 3 3 7 4 5 10 15 18 16 18 28 17 11 23 25 22 24 23 23 22
40 39 15 7 7 13 20 11 3 6 15 13 15 18 18 14 19 16 11 11 7 6 12 15 18 11 6 3 10 10 6 7 7 8 7 18 11 8 14 24 28 25 21 17 23
43 42 8 12 14 16 12 3 6 10 13 9 16 23 17 19 20 19 17 14 18 19 16 15 18 16 10 6 2 3 2 1 5 10 12 8 3 10 24 25 23 23 19 17 19
38 8 8 10 21 14 7 6 7 5 17 13 6 5 18 21 18 19 20 22 20 22 15 6 3 18 11 8 5 4 5 7 6 7 7 6 11 18 24 22 19 18 18 18 17
15 9 10 17 20 11 5 7 8 13 18 11 5 5 7 12 12 10 7 10 15 6 10 4 2 3 9 10 2 6 4 3 4 5 10 8 4 14 15 16 14 14 12 15 14
4 8 4 13 10 5 9 7 13 22 1 4 7 14 18 17 18 9 17 17 16 10 12 5 2 10 11 4 11 5 6 8 3 2 3 6 4 11 14 12 9 10 19 19 16
10 4 9 7 8 6 14 10 8 19 6 1 4 12 16 18 17 13 8 5 12 15 13 6 1 4 10 13 15 2 11 5 3 6 11 4 3 14 12 10 16 16 17 14 13
12 7 10 6 7 15 19 24 26 13 10 5 6 9 16 13 10 9 8 9 13 9 5 6 1 3 7 12 7 6 5 5 2 6 14 7 7 5 9 9 16 15 14 13 10
6 6 7 6 11 15 18 20 21 10 6 12 11 12 11 11 13 6 8 6 16 10 8 6 2 3 7 9 12 11 14 6 12 9 11 16 12 16 12 16 16 15 14 10 7
5 5 7 5 5 18 13 18 15 14 10 4 6 10 14 11 10 11 11 5 12 12 6 5 4 7 9 14 18 17 17 17 17 10 12 12 13 8 14 16 14 13 11 11 10
6 8 10 15 14 15 15 7 10 17 11 7 12 11 12 8 9 9 9 12 11 7 9 8 5 7 11 12 15 19 19 19 21 20 21 20 17 20 15 13 13 11 10 8 14
9 8 8 10 12 13 12 11 15 15 19 14 7 4 18 13 15 15 16 13 8 10 9 10 5 1 8 9 16 16 14 19 20 21 16 2 9 14 15 14 15 16 12 14 10
Wind_Direction
349 347 346 346 346 341 335 326 318 308 299 293 296 304 316 320 309 243 247 228 210 206 167 287 215 252 258 254 260 264 272 283 48 41 26 28 25 355 67 136 202 175 141 143 148
347 346 344 346 344 340 332 325 318 308 298 289 286 298 310 327 287 254 240 210 150 164 203 237 248 237 251 262 257 236 244 350 50 49 26 355 9 300 62 92 92 106 122 139 148
345 344 342 341 342 340 334 329 322 312 297 283 276 278 295 309 306 243 223 196 180 181 244 274 296 288 277 283 275 264 299 334 37 57 32 315 333 65 67 86 130 135 142 148 152
341 339 337 338 339 340 337 334 326 316 298 274 254 249 278 257 42 99 143 156 171 195 227 267 277 273 281 276 288 225 327 319 22 2 16 27 349 74 64 61 140 143 147 150 157
340 338 336 337 337 338 337 334 329 320 296 251 212 204 188 231 255 149 143 146 146 168 209 236 257 267 272 301 322 327 356 14 356 58 14 355 78 85 59 74 131 144 150 155 160
340 338 336 335 337 337 335 333 332 328 299 189 177 168 231 274 119 146 155 152 174 179 217 248 260 267 292 290 294 296 8 313 283 127 228 149 112 90 55 81 76 146 156 162 165
340 338 336 335 336 335 333 330 330 336 125 160 169 207 267 261 139 160 158 181 191 200 225 230 258 305 306 307 308 309 297 265 248 189 192 85 98 105 111 82 70 66 125 164 172
339 336 334 333 335 333 329 325 321 333 139 153 173 260 250 199 142 156 193 199 198 209 235 287 292 259 282 285 294 293 275 262 181 195 150 113 116 103 97 90 73 45 91 71 77
338 335 333 331 334 333 326 317 297 216 138 154 185 206 283 115 212 192 203 211 198 215 248 265 347 287 279 275 282 274 259 209 170 149 136 147 130 121 111 105 99 82 68 60 34
337 335 332 329 331 333 325 297 137 340 206 208 266 291 262 211 204 191 232 262 211 218 218 216 240 236 267 260 273 333 349 147 150 165 124 31 139 120 125 118 114 98 85 69 48
337 334 332 328 325 331 344 9 36 297 233 220 256 217 168 221 171 191 199 228 257 243 234 219 220 246 247 233 356 340 344 357 89 116 99 300 147 142 131 125 124 118 109 96 79
337 334 332 326 322 323 245 293 43 277 295 263 249 261 213 146 178 204 174 207 221 243 242 251 235 258 357 27 3 330 315 309 201 126 105 276 279 155 139 141 140 132 124 118 101
335 334 333 327 319 321 249 352 271 286 266 279 225 236 189 173 236 192 172 217 245 236 247 240 262 117 18 322 265 304 303 33 11 358 338 232 262 148 129 121 127 129 131 122 116
333 332 334 331 329 340 299 4 11 343 289 249 185 208 209 198 245 208 175 208 222 240 276 230 120 46 339 288 317 64 12 3 349 340 304 318 300 158 143 138 133 129 126 127 128
330 329 331 324 300 305 317 334 330 300 341 148 172 190 162 187 189 157 172 223 257 289 293 260 164 145 242 21 52 349 2 328 298 285 283 275 270 150 145 153 137 135 133 137 134
326 323 332 77 243 255 296 292 301 258 251 169 141 171 174 211 252 155 167 221 290 297 310 266 291 72 347 28 26 339 301 287 273 257 255 259 231 168 167 167 138 131 135 140 136
323 316 309 277 244 319 318 305 231 234 148 157 167 173 195 194 238 150 187 202 234 249 255 269 249 181 175 6 290 222 296 337 338 353 247 299 106 138 190 153 143 136 134 144 142
324 312 256 211 241 269 286 297 240 267 263 186 169 169 189 207 214 181 181 204 216 238 269 279 307 156 139 200 36 335 40 261 312 337 317 345 348 170 105 108 120 129 138 126 126
322 308 261 239 224 245 270 248 228 207 341 347 138 200 198 205 216 193 193 202 225 213 217 257 72 88 151 135 136 22 318 300 328 310 309 258 84 99 117 125 135 125 101 104 110
326 301 262 234 198 209 242 254 291 313 295 359 351 323 261 271 232 172 195 213 233 234 106 64 36 251 202 104 161 212 237 323 301 283 285 339 109 138 131 134 130 125 126 123 101
295 302 230 174 155 217 234 252 277 286 179 28 318 310 304 313 319 209 213 219 257 132 98 61 76 301 133 179 223 232 201 236 234 42 309 342 108 125 115 119 129 99 93 92 80
326 276 165 186 195 213 235 249 261 291 126 118 276 275 294 306 325 312 323 80 15 138 134 121 84 261 242 304 322 193 195 150 108 302 303 327 242 137 151 148 114 111 105 97 91
324 278 301 205 237 238 256 261 260 248 294 287 268 246 279 289 311 335 6 72 50 54 49 9 1 313 304 300 328 278 210 101 308 233 253 252 259 178 117 104 128 126 131 121 107
292 295 244 230 227 266 293 294 293 181 227 293 329 335 329 285 271 315 311 138 86 103 92 62 337 214 236 278 306 301 309 213 211 241 242 238 245 307 97 94 79 77 101 106 97
244 276 9 348 335 331 303 270 311 306 161 196 274 272 291 306 318 293 283 129 129 157 133 125 225 284 302 302 304 308 310 313 308 281 278 272 286 296 96 85 77 68 63 60 56
305 357 336 306 310 313 300 324 310 306 316 247 209 252 265 297 335 335 9 358 229 176 151 160 220 254 267 285 294 291 286 285 277 279 281 282 276 119 97 84 64 43 31 10 87
349 341 311 299 314 318 286 286 295 280 287 291 335 356 48 26 355 329 311 312 39 144 164 173 189 185 255 328 330 297 288 290 291 282 265 69 121 105 90 78 73 58 47 86 73